This is the latest recevied weather packets stored in our database for station/object K2ATL. If no packets are shown the sender has not sent any weather packets the latest 1 day(s).
| Time | Temp. | Humidity | Pressure | Rain* | Wind** | Luminosity | Snow |
|---|---|---|---|---|---|---|---|
| 1778007302 | 24.44° C | 37% | 1100.2 hPa | 0 mm | 3.13 m/s, 153° | 962 W/m² | - |
| 1778006997 | 23.33° C | 37% | 1100.3 hPa | 0 mm | 1.34 m/s, 138° | 965 W/m² | - |
| 1778006695 | 24.44° C | 36% | 1100.3 hPa | 0 mm | 3.58 m/s, 141° | 899 W/m² | - |
| 1778006391 | 24.44° C | 39% | 1100 hPa | 0 mm | 3.58 m/s, 128° | 940 W/m² | - |
| 1778006088 | 25° C | 39% | 1100 hPa | 0 mm | 1.79 m/s, 125° | 902 W/m² | - |
| 1778005784 | 23.89° C | 40% | 1100 hPa | 0 mm | 0 m/s | 818 W/m² | - |
| 1778005482 | 23.33° C | 41% | 1100 hPa | 0 mm | 0.89 m/s, 159° | 766 W/m² | - |
| 1778005177 | 23.89° C | 42% | 1100.2 hPa | 0 mm | 1.79 m/s, 155° | 1014 W/m² | - |
| 1778004876 | 24.44° C | 39% | 1100.3 hPa | 0 mm | 0.45 m/s, 145° | 800 W/m² | - |
| 1778004572 | 23.89° C | 40% | 1100.5 hPa | 0 mm | 2.24 m/s, 144° | 1014 W/m² | - |
| 1778004268 | 23.33° C | 42% | 1100.3 hPa | 0 mm | 0.45 m/s, 123° | 290 W/m² | - |
| 1778003965 | 22.78° C | 42% | 1100.7 hPa | 0 mm | 3.13 m/s, 117° | 950 W/m² | - |
| 1778003662 | 22.22° C | 40% | 1100.7 hPa | 0 mm | 0 m/s | 896 W/m² | - |
| 1778003358 | 22.78° C | 39% | 1101 hPa | 0 mm | 2.24 m/s, 126° | 948 W/m² | - |
| 1778003056 | 22.22° C | 40% | 1100.7 hPa | 0 mm | 1.34 m/s, 127° | 975 W/m² | - |
| 1778002752 | 22.22° C | 40% | 1100.9 hPa | 0 mm | 3.58 m/s, 111° | 892 W/m² | - |
| 1778002448 | 21.67° C | 45% | 1101.1 hPa | 0 mm | 1.34 m/s, 170° | 978 W/m² | - |
| 1778002145 | 22.78° C | 42% | 1101 hPa | 0 mm | 3.13 m/s, 135° | 826 W/m² | - |
| 1778001843 | 21.67° C | 42% | 1101.2 hPa | 0 mm | 2.68 m/s, 134° | 295 W/m² | - |
| 1778001542 | 21.11° C | 42% | 1100.8 hPa | 0 mm | 2.68 m/s, 134° | 677 W/m² | - |
| 1778001239 | 21.11° C | 41% | 1101.2 hPa | 0 mm | 2.68 m/s, 213° | 908 W/m² | - |
| 1778000936 | 21.67° C | 41% | 1101.4 hPa | 0 mm | 2.24 m/s, 155° | 957 W/m² | - |
| 1778000633 | 22.22° C | 41% | 1101.5 hPa | 0 mm | 2.68 m/s, 147° | 358 W/m² | - |
| 1778000328 | 22.22° C | 40% | 1101.2 hPa | 0 mm | 2.24 m/s, 170° | 245 W/m² | - |
| 1778000024 | 22.22° C | 42% | 1101.2 hPa | 0 mm | 1.34 m/s, 158° | 908 W/m² | - |
* Rain latest hour (hover to see other rain measurements)
** Current wind speed in m/s (hover to see current wind gust speed)